Location: Miles
(41.4492°N, 81.6087°W)
Time: 23:08:46
(UTC+00:00)

Courier 1B Rocket - Pass Details

Date: 21 September 2024
Orbit: 920 x 1201 km, 28.2° (Epoch: 09 October)

Event Time Altitude Azimuth Distance (km) Brightness Sun altitude
Rises 22:48:03 0° 255° (WSW) 3,653 10.2 6.0°
Reaches altitude 10° 22:51:34 10° 236° (SW) 2,751 8.6 5.3°
Maximum altitude 22:55:48 18° 197° (SSW) 2,296 7.3 4.5°
Drops below altitude 10° 23:00:11 10° 157° (SSE) 2,878 7.3 3.7°
Sets 23:04:00 0° 139° (SE) 3,892 7.8 3.0°
